TimeAWST,TemperatureF,Dew PointF,Humidity,Sea Level PressureIn,VisibilityMPH,Wind Direction,Wind SpeedMPH,Gust SpeedMPH,PrecipitationIn,Events,Conditions,WindDirDegrees,DateUTC
12:00 AM,67,60,73,29.93,,NNE,2.2,,,,,30,2013-07-12 16:00:00
12:00 AM,68.0,60.8,78,29.92,-9999.0,NNE,1.2,-,N/A,,Unknown,30,2013-07-12 16:00:00
12:30 AM,68.0,60.8,78,29.92,-9999.0,North,3.5,-,N/A,,Unknown,350,2013-07-12 16:30:00
1:00 AM,68.0,60.8,78,29.92,-9999.0,Calm,Calm,-,N/A,,Unknown,0,2013-07-12 17:00:00
1:30 AM,66.2,60.8,83,29.92,-9999.0,Calm,Calm,-,N/A,,Unknown,0,2013-07-12 17:30:00
2:00 AM,66.2,60.8,83,29.92,-9999.0,Calm,Calm,-,N/A,,Unknown,0,2013-07-12 18:00:00
2:30 AM,66.2,60.8,83,29.92,-9999.0,Calm,Calm,-,N/A,,Unknown,0,2013-07-12 18:30:00
3:00 AM,65,60,78,29.91,,Calm,Calm,,,,,,2013-07-12 19:00:00
3:00 AM,66.2,59.0,78,29.89,-9999.0,Calm,Calm,-,N/A,,Unknown,0,2013-07-12 19:00:00
3:30 AM,64.4,60.8,88,29.92,-9999.0,Calm,Calm,-,N/A,,Unknown,0,2013-07-12 19:30:00
4:00 AM,64.4,60.8,88,29.92,-9999.0,Calm,Calm,-,N/A,,Unknown,0,2013-07-12 20:00:00
4:30 AM,64.4,60.8,88,29.92,-9999.0,Calm,Calm,-,N/A,,Unknown,0,2013-07-12 20:30:00
5:00 AM,65,61,82,29.92,,Calm,Calm,,,,,,2013-07-12 21:00:00
5:00 AM,64.4,60.8,88,29.92,-9999.0,Calm,Calm,-,N/A,,Unknown,0,2013-07-12 21:00:00
5:30 AM,62.6,60.8,94,29.92,-9999.0,NNE,2.3,-,N/A,,Unknown,30,2013-07-12 21:30:00
6:00 AM,65,62,86,29.94,,ESE,2.2,,,,,110,2013-07-12 22:00:00
6:00 AM,64.4,62.6,94,29.92,-9999.0,ESE,1.2,-,N/A,,Unknown,110,2013-07-12 22:00:00
6:30 AM,66.2,62.6,88,29.95,-9999.0,ESE,2.3,-,N/A,,Unknown,110,2013-07-12 22:30:00
7:00 AM,69.8,62.6,78,29.95,-9999.0,Calm,Calm,-,N/A,,Unknown,0,2013-07-12 23:00:00
7:30 AM,73.4,64.4,73,29.98,-9999.0,SSE,1.2,-,N/A,,Unknown,150,2013-07-12 23:30:00
8:00 AM,78,61,47,29.99,,South,6.7,,,,,180,2013-07-13 00:00:00
8:00 AM,78.8,60.8,54,29.98,-9999.0,South,3.5,-,N/A,,Unknown,180,2013-07-13 00:00:00
8:30 AM,80.6,60.8,51,29.98,-9999.0,South,3.5,-,N/A,,Unknown,190,2013-07-13 00:30:00
9:00 AM,84,59,32,29.99,,NNE,6.7,,,,,30,2013-07-13 01:00:00
9:00 AM,84.2,59.0,42,29.98,-9999.0,NNE,3.5,-,N/A,,Unknown,30,2013-07-13 01:00:00
9:30 AM,86.0,59.0,40,29.98,-9999.0,NE,8.1,-,N/A,,Unknown,50,2013-07-13 01:30:00
10:00 AM,89.6,59.0,36,29.98,-9999.0,ENE,10.4,-,N/A,,Unknown,70,2013-07-13 02:00:00
10:30 AM,89.6,57.2,33,29.95,-9999.0,East,11.5,-,N/A,,Unknown,80,2013-07-13 02:30:00
11:00 AM,91,56,21,29.94,,ENE,9.2,,,,,60,2013-07-13 03:00:00
11:00 AM,91.4,55.4,29,29.92,-9999.0,ENE,9.2,-,N/A,,Unknown,60,2013-07-13 03:00:00
11:30 AM,91.4,55.4,29,29.92,-9999.0,ENE,10.4,-,N/A,,Unknown,60,2013-07-13 03:30:00
12:00 PM,90,56,22,29.90,,East,17.9,,,,,90,2013-07-13 04:00:00
12:00 PM,89.6,55.4,31,29.89,-9999.0,East,9.2,-,N/A,,Mostly Cloudy,90,2013-07-13 04:00:00
12:30 PM,91.4,55.4,29,29.89,-9999.0,SSE,9.2,-,N/A,,Mostly Cloudy,150,2013-07-13 04:30:00
1:00 PM,91.4,53.6,28,29.86,-9999.0,ESE,12.7,-,N/A,,Scattered Clouds,110,2013-07-13 05:00:00
1:30 PM,91.4,53.6,28,29.86,-9999.0,ESE,11.5,-,N/A,,Unknown,110,2013-07-13 05:30:00
2:00 PM,92,53,17,29.85,,ENE,24.6,,,,,70,2013-07-13 06:00:00
2:00 PM,93.2,53.6,26,29.83,-9999.0,ENE,12.7,-,N/A,,Unknown,70,2013-07-13 06:00:00
2:30 PM,93.2,53.6,26,29.83,-9999.0,East,10.4,-,N/A,,Unknown,90,2013-07-13 06:30:00
3:00 PM,92,53,18,29.84,,NE,15.7,,,,,40,2013-07-13 07:00:00
3:00 PM,93.2,53.6,26,29.83,-9999.0,NE,8.1,-,N/A,,Unknown,40,2013-07-13 07:00:00
3:30 PM,91.4,53.6,28,29.83,-9999.0,East,8.1,-,N/A,,Unknown,90,2013-07-13 07:30:00
4:00 PM,91.4,53.6,28,29.83,-9999.0,East,8.1,-,N/A,,Unknown,80,2013-07-13 08:00:00
4:30 PM,89.6,53.6,29,29.83,-9999.0,ESE,8.1,-,N/A,,Unknown,110,2013-07-13 08:30:00
5:00 PM,85,60,32,29.85,,ENE,11.2,,,,,70,2013-07-13 09:00:00
5:00 PM,86.0,60.8,43,29.83,-9999.0,ENE,5.8,-,N/A,,Unknown,70,2013-07-13 09:00:00
5:30 PM,84.2,57.2,40,29.86,-9999.0,ENE,4.6,-,N/A,,Unknown,70,2013-07-13 09:30:00
6:00 PM,79,61,44,29.86,,Calm,Calm,,,,,,2013-07-13 10:00:00
6:00 PM,78.8,60.8,54,29.86,-9999.0,Calm,Calm,-,N/A,,Unknown,0,2013-07-13 10:00:00
6:30 PM,75.2,59.0,57,29.86,-9999.0,Calm,Calm,-,N/A,,Unknown,0,2013-07-13 10:30:00
7:00 PM,75.2,64.4,69,29.89,-9999.0,Calm,Calm,-,N/A,,Unknown,0,2013-07-13 11:00:00
7:30 PM,73.4,62.6,69,29.89,-9999.0,ESE,1.2,-,N/A,,Unknown,110,2013-07-13 11:30:00
8:00 PM,71,62,67,29.90,,Calm,Calm,,,,,,2013-07-13 12:00:00
8:00 PM,71.6,62.6,73,29.89,-9999.0,Calm,Calm,-,N/A,,Unknown,0,2013-07-13 12:00:00
8:30 PM,71.6,62.6,73,29.89,-9999.0,Calm,Calm,-,N/A,,Unknown,0,2013-07-13 12:30:00
9:00 PM,70,60,64,29.91,,SSE,8.9,,,,,150,2013-07-13 13:00:00
9:00 PM,69.8,60.8,73,29.92,-9999.0,SSE,4.6,-,N/A,,Unknown,150,2013-07-13 13:00:00
9:30 PM,69.8,60.8,73,29.92,-9999.0,Calm,Calm,-,N/A,,Unknown,0,2013-07-13 13:30:00
10:00 PM,69.8,59.0,68,29.92,-9999.0,Calm,Calm,-,N/A,,Unknown,0,2013-07-13 14:00:00
10:30 PM,68.0,59.0,73,29.92,-9999.0,Calm,Calm,-,N/A,,Unknown,0,2013-07-13 14:30:00
11:00 PM,68,58,64,29.92,,West,6.7,,,,,270,2013-07-13 15:00:00
11:00 PM,68.0,59.0,73,29.92,-9999.0,West,3.5,-,N/A,,Unknown,270,2013-07-13 15:00:00
11:30 PM,68.0,59.0,73,29.92,-9999.0,WNW,3.5,-,N/A,,Unknown,300,2013-07-13 15:30:00